Location: Cicognara
(44.9500°N, 10.4667°E)
Time: 23:38:52
(UTC+00:00)

Cosmos 405 - Pass Details

Date: 20 June 2021
Orbit: 446 x 460 km, 81.3° (Epoch: 23 July)

Event Time Altitude Azimuth Distance (km) Brightness Sun altitude
Rises 20:11:17 0° 0° (N) 2,460 7.4 -9.2°
Reaches altitude 10° 20:13:35 10° 13° (NNE) 1,582 6.2 -9.5°
Maximum altitude 20:16:34 26° 73° (ENE) 910 4.2 -9.9°
Enters shadow 20:18:47 14° 124° (SE) 1,325 4.6 -10.1°
